| time (UTC) | temp F | wind direction | speed knots | gust knots | rain 1hr in | rain 24hr in | rain mn in | humidity % | barometer mb |
| 20260504050006 | 66 | 259 | 0.0 | 3.5 | 0.00 | 0.00 | 0.00 | 40 | 1019.2 |
| 20260504040006 | 66 | 259 | 0.0 | 3.5 | 0.00 | 0.00 | 0.00 | 40 | 1019.2 |
| 20260504030005 | 66 | 259 | 0.0 | 3.5 | 0.00 | 0.00 | 0.00 | 40 | 1019.2 |
| 20260504020006 | 66 | 259 | 0.0 | 3.5 | 0.00 | 0.00 | 0.00 | 40 | 1019.2 |
| 20260504010005 | 66 | 259 | 0.0 | 3.5 | 0.00 | 0.00 | 0.00 | 40 | 1019.2 |
| 20260504000005 | 66 | 259 | 0.0 | 3.5 | 0.00 | 0.00 | 0.00 | 40 | 1019.2 |
| 20260503230006 | 66 | 259 | 0.0 | 3.5 | 0.00 | 0.00 | 0.00 | 40 | 1019.2 |
| 20260503220005 | 66 | 259 | 0.0 | 3.5 | 0.00 | 0.00 | 0.00 | 40 | 1019.2 |
| 20260503210006 | 66 | 259 | 0.0 | 3.5 | 0.00 | 0.00 | 0.00 | 40 | 1019.2 |
| 20260503200005 | 66 | 259 | 0.0 | 3.5 | 0.00 | 0.00 | 0.00 | 40 | 1019.2 |
| 20260503190006 | 66 | 259 | 0.0 | 3.5 | 0.00 | 0.00 | 0.00 | 40 | 1019.2 |
| 20260503185017 | 66 | 259 | 0.9 | 3.5 | 0.00 | 0.00 | 0.00 | 40 | 1019.8 |
| 20260503184018 | 65 | 252 | 0.9 | 3.5 | 0.00 | 0.00 | 0.00 | 43 | 1019.8 |
| 20260503183518 | 65 | 343 | 1.7 | 3.5 | 0.00 | 0.00 | 0.00 | 42 | 1019.8 |
| 20260503182558 | 65 | 34 | 1.7 | 5.2 | 0.00 | 0.00 | 0.00 | 45 | 1019.8 |
| 20260503181518 | 65 | 359 | 0.9 | 3.5 | 0.00 | 0.00 | 0.00 | 47 | 1020.0 |
| 20260503180518 | 65 | 49 | 0.9 | 4.3 | 0.00 | 0.00 | 0.00 | 47 | 1020.1 |
| 20260503180005 | 64 | 263 | 0.0 | 4.3 | 0.00 | 0.00 | 0.00 | 49 | 1019.7 |
| 20260503175519 | 64 | 263 | 1.7 | 4.3 | 0.00 | 0.00 | 0.00 | 49 | 1020.2 |
| 20260503174516 | 64 | 84 | 0.9 | 4.3 | 0.00 | 0.00 | 0.00 | 48 | 1020.3 |
| 20260503173516 | 64 | 44 | 0.9 | 3.5 | 0.00 | 0.00 | 0.00 | 49 | 1020.5 |
| 20260503172538 | 63 | 222 | 1.7 | 4.3 | 0.00 | 0.00 | 0.00 | 50 | 1020.7 |
| 20260503171536 | 63 | 47 | 0.9 | 2.6 | 0.00 | 0.00 | 0.00 | 49 | 1020.9 |
| 20260503170516 | 62 | 32 | 0.9 | 3.5 | 0.00 | 0.00 | 0.00 | 51 | 1021.0 |
| 20260503150538 | 57 | 54 | 1.7 | 4.3 | 0.00 | 0.00 | 0.00 | 56 | 1021.9 |
| 20260503130517 | 48 | 228 | 0.0 | 1.7 | 0.00 | 0.00 | 0.00 | 81 | 1021.6 |
| 20260503110516 | 41 | 192 | 0.0 | 0.9 | 0.00 | 0.00 | 0.00 | 92 | 1020.8 |